Indianapolis, IN

2:16 PM EST on November 20, 2019 (GMT -0500)
Indianapolis International

Weather History for KIND - May, 2019

Change the Weather History Date:

Sunday, May 12, 2019

  Actual Average Record
Temperature  
Mean Temperature 47 °F 61 °F  
Max Temperature 49 °F 72 °F 88 °F (1881)
Min Temperature 44 °F 51 °F 33 °F (1976)
Degree Days  
Heating Degree Days 18 5  
Month to date heating degree days 76 76  
Since 1 July heating degree days 5327 5298  
Cooling Degree Days 0 2  
Month to date cooling degree days 3 14  
Year to date cooling degree days 4 29  
Moisture  
Dew Point 44 °F    
Average Humidity 93    
Maximum Humidity 100    
Minimum Humidity 86    
Precipitation  
Precipitation 0.03 in 0.17 in 2.15 in (1920)
Month to date precipitation 1.33 1.93  
Year to date precipitation 18.81 14.28  
Snow  
Snow 0.00 in 0.00 in 0.00 in ()
Month to date snowfall 0.0 0.0  
Since 1 July snowfall 19.4 25.9  
Snow Depth 0.00 in    
Sea Level Pressure  
Sea Level Pressure 29.79 in    
Wind  
Wind Speed 8 mph (North)    
Max Wind Speed 16 mph    
Max Gust Speed 21 mph    
Visibility 7 miles    
Events Rain    
T = Trace of Precipitation, MM = Missing Value Source: NWS Daily Summary

Daily Weather History Graph

Daily Weather History Graph

Search for Another Location

Airport or City:

Astronomy

May. 12, 2019 Rise Set
Actual Time 6:33 AM EDT 8:49 PM EDT
Civil Twilight 6:03 AM EDT 9:20 PM EDT
Nautical Twilight 5:26 AM EDT 9:57 PM EDT
Astronomical Twilight 4:45 AM EDT 10:38 PM EDT
Moon 1:52 PM EDT (5/12) 3:11 AM EDT (5/12)
Length of Visible Light 15h 16m
Length of Day
14h 16m
First Quarter, 57% of the Moon is Illuminated
May 12
First Quarter
May 18
Full
May 26
Last Quarter
Jun 3
New
Jun 10
First Quarter

Hourly Weather History & Observations

Time (EDT) Temp. Windchill Dew Point Humidity Pressure Visibility Wind Dir Wind Speed Gust Speed Precip Events Conditions
12:12 AM 45.0 °F 38.2 °F 43.0 °F 93% 29.84 in 10.0 mi NNE 15.0 mph 23.0 mph N/A   Overcast
12:54 AM 45.0 °F 37.9 °F 42.1 °F 90% 29.83 in 5.0 mi NE 16.1 mph 23.0 mph 0.00 in Rain Light Rain
1:28 AM 45.0 °F 39.3 °F 43.0 °F 93% 29.81 in 5.0 mi NE 11.5 mph - 0.00 in Rain Light Rain
1:54 AM 44.1 °F 37.7 °F 42.1 °F 93% 29.80 in 6.0 mi NE 12.7 mph - 0.00 in Rain Light Rain
2:54 AM 44.1 °F 38.6 °F 42.1 °F 93% 29.80 in 7.0 mi NNE 10.4 mph - 0.00 in   Overcast
3:54 AM 44.1 °F 37.7 °F 43.0 °F 96% 29.78 in 3.0 mi NNE 12.7 mph - 0.00 in Rain Light Rain
4:54 AM 45.0 °F 39.3 °F 43.0 °F 93% 29.78 in 7.0 mi NE 11.5 mph - 0.00 in   Overcast
5:54 AM 45.0 °F 41.2 °F 44.1 °F 97% 29.78 in 3.0 mi NNE 6.9 mph - N/A   Overcast
6:54 AM 45.0 °F 40.1 °F 43.0 °F 93% 29.79 in 5.0 mi NNE 9.2 mph - N/A   Overcast
7:16 AM 45.0 °F 41.2 °F 44.1 °F 97% 29.79 in 1.5 mi NNE 6.9 mph - N/A   Overcast
7:54 AM 45.0 °F 41.2 °F 44.1 °F 97% 29.81 in 1.2 mi North 6.9 mph - N/A   Overcast
8:54 AM 46.0 °F 41.4 °F 44.1 °F 93% 29.80 in 2.5 mi NNE 9.2 mph - 0.00 in   Light Drizzle
9:54 AM 46.9 °F - 44.1 °F 90% 29.80 in 2.5 mi North 8.1 mph - 0.00 in   Light Drizzle
10:51 AM 46.4 °F 42.4 °F 44.6 °F 93% 29.78 in 4.0 mi NNE 8.1 mph - 0.00 in   Light Drizzle
10:54 AM 46.9 °F - 45.0 °F 93% 29.79 in 4.0 mi NNE 8.1 mph - 0.00 in   Light Drizzle
11:54 AM 46.9 °F - 45.0 °F 93% 29.80 in 4.0 mi NE 9.2 mph - 0.01 in Rain Rain
12:26 PM 48.0 °F - 45.0 °F 89% 29.80 in 10.0 mi North 5.8 mph - 0.02 in   Overcast
12:37 PM 46.9 °F - 45.0 °F 93% 29.80 in 10.0 mi NNE 4.6 mph - 0.02 in   Overcast
12:54 PM 48.0 °F - 45.0 °F 89% 29.80 in 10.0 mi NNE 4.6 mph - 0.02 in Rain Light Rain
1:54 PM 48.0 °F - 45.0 °F 89% 29.79 in 10.0 mi NNE 4.6 mph - 0.00 in   Overcast
2:54 PM 48.9 °F - 45.0 °F 86% 29.79 in 10.0 mi Calm Calm - N/A   Overcast
3:54 PM 48.0 °F - 45.0 °F 89% 29.79 in 10.0 mi NW 4.6 mph - N/A   Overcast
4:54 PM 48.9 °F - 45.0 °F 86% 29.78 in 10.0 mi Calm Calm - N/A   Overcast
5:54 PM 48.0 °F - 46.0 °F 93% 29.78 in 5.0 mi NNW 5.8 mph - 0.00 in   Light Drizzle
6:26 PM 48.0 °F - 46.0 °F 93% 29.77 in 6.0 mi NNW 4.6 mph - 0.00 in   Light Drizzle
6:54 PM 48.0 °F - 46.0 °F 93% 29.79 in 10.0 mi West 5.8 mph - 0.00 in   Overcast
7:54 PM 48.0 °F - 46.0 °F 93% 29.78 in 9.0 mi WNW 6.9 mph - 0.00 in   Overcast
8:13 PM 48.0 °F - 46.0 °F 93% 29.78 in 10.0 mi West 8.1 mph - N/A   Overcast
8:54 PM 46.9 °F - 45.0 °F 93% 29.78 in 10.0 mi WNW 8.1 mph - N/A   Overcast
9:09 PM 46.9 °F - 45.0 °F 93% 29.78 in 10.0 mi WNW 5.8 mph - N/A   Overcast
9:54 PM 46.9 °F - 45.0 °F 93% 29.80 in 10.0 mi West 6.9 mph - N/A   Overcast
10:24 PM 46.9 °F - 46.0 °F 97% 29.80 in 10.0 mi WNW 5.8 mph - N/A   Overcast
10:54 PM 46.9 °F - 46.0 °F 97% 29.81 in 6.0 mi West 5.8 mph - 0.00 in   Light Drizzle
11:54 PM 46.9 °F - 45.0 °F 93% 29.81 in 10.0 mi West 8.1 mph - 0.00 in   Overcast